Temp
20 21 21 21 21 22 22 22 22 22 23 23 23 23 22 22 22 23 23 23 23 23 23 23 23 23 23 23 23 23 23 23 23 23 23 23 23 23 23 22 22 22 22 22 22 22 22 22 22 22 22 22 22 22 21 21 22 22 22 22 21 21 21 21 22 22 22 22 21 21 21 21 21 21 21 21 21 21 21 21 21 21 20 20 20
21 21 21 21 21 21 22 22 22 22 22 23 23 22 22 22 22 22 23 23 23 23 23 23 23 23 23 23 23 23 23 23 23 23 23 23 23 23 22 22 22 22 22 22 22 22 22 22 22 22 22 22 22 22 22 21 22 21 21 21 21 21 21 21 21 22 22 22 22 22 21 21 21 21 21 21 21 21 21 21 21 21 20 20 20
21 21 21 21 21 22 22 22 22 22 22 22 22 22 22 22 22 22 23 23 23 23 23 23 23 23 23 23 23 23 23 23 23 23 23 22 22 22 22 22 22 22 22 22 22 22 22 22 22 21 21 22 22 22 22 22 21 21 21 21 21 21 21 22 21 21 21 21 21 21 21 21 21 21 21 21 21 21 21 21 21 20 20 20 20
21 21 21 21 21 22 22 22 22 22 22 22 22 22 22 22 22 23 23 23 23 23 23 23 23 23 23 23 23 23 23 23 23 23 22 22 22 22 22 22 22 22 22 22 22 22 22 22 21 21 21 21 22 22 22 22 21 21 21 21 21 21 21 21 22 21 21 21 21 21 21 21 20 21 21 21 21 21 21 21 21 20 20 21 20
21 21 21 21 21 22 22 22 22 22 22 22 22 22 22 22 23 23 23 23 23 23 23 23 23 23 23 23 23 23 23 23 23 22 22 22 22 22 22 22 22 22 22 22 22 22 22 22 22 22 22 22 22 21 21 21 21 21 21 21 21 21 21 21 21 21 21 21 21 21 21 20 20 20 21 21 21 21 21 21 21 21 21 21 20
21 21 21 21 21 22 22 22 22 22 22 22 22 23 23 23 23 23 23 23 23 23 23 23 23 23 23 23 23 23 23 23 23 23 22 22 22 22 22 22 22 22 22 22 22 22 22 22 22 22 22 22 22 21 21 21 21 21 21 21 21 21 21 21 21 21 21 22 21 21 21 20 20 20 21 21 21 21 21 21 21 21 21 21 20
21 21 21 21 21 21 22 22 22 22 22 22 23 23 23 23 23 23 23 23 23 23 23 23 23 23 23 23 23 23 23 23 23 23 22 22 22 22 23 23 22 22 22 22 22 22 22 22 22 22 22 22 21 21 21 21 21 21 21 21 21 21 21 21 21 21 21 22 21 21 21 21 20 20 20 21 21 21 21 21 21 21 21 21 21
21 21 21 21 21 21 22 22 22 22 22 22 23 23 23 23 23 23 23 23 23 23 23 23 23 23 23 23 23 23 23 23 23 23 22 22 22 23 23 23 22 22 22 22 22 22 22 22 22 22 22 22 21 22 22 22 22 21 21 21 21 21 21 21 21 21 21 21 22 21 21 21 21 20 20 20 20 21 21 21 21 21 21 21 21
21 21 21 21 21 22 22 22 22 22 22 22 23 23 23 23 23 23 23 23 23 23 23 23 23 23 23 23 23 23 23 23 23 22 22 22 23 23 23 23 23 22 22 22 22 22 22 22 22 22 22 22 22 22 22 22 22 21 21 21 22 21 21 21 21 21 21 21 21 21 21 21 21 21 21 20 21 21 21 21 21 21 21 21 21
21 21 21 21 21 22 22 22 22 22 22 22 23 23 23 23 23 23 23 23 23 23 23 23 23 23 23 23 23 23 23 23 22 22 22 22 23 23 23 23 23 23 22 22 22 22 22 22 22 22 22 22 21 22 22 22 22 21 21 21 21 22 21 22 22 21 21 21 21 21 21 21 21 21 21 21 21 21 21 21 21 21 21 21 21
21 21 21 21 21 22 22 22 22 22 22 22 22 22 23 23 23 23 23 23 23 23 23 23 23 23 23 23 23 23 23 22 22 22 22 22 23 23 23 23 23 23 22 23 23 23 23 23 23 22 22 22 21 21 22 22 22 22 21 21 21 21 21 21 22 22 21 21 21 21 21 21 21 21 21 21 21 20 21 21 20 21 21 21 21
22 22 22 22 22 22 22 22 22 22 22 22 22 22 22 23 23 23 23 23 23 23 23 22 23 23 23 23 23 23 22 22 22 22 22 23 23 23 23 23 23 23 23 23 23 23 23 23 23 23 23 22 22 22 21 22 22 22 21 21 21 21 21 21 21 22 21 21 21 21 21 22 22 21 21 21 21 20 21 21 20 20 21 21 21
22 22 22 22 22 22 22 22 22 22 22 22 22 22 22 23 23 23 23 23 23 23 23 22 23 23 23 23 23 23 23 22 22 22 22 23 23 23 23 23 23 23 23 23 23 23 23 23 23 23 23 23 22 22 21 21 22 22 21 21 21 21 21 21 21 21 21 21 21 21 21 22 22 21 21 21 21 20 20 20 20 20 21 21 21
22 22 22 22 22 22 22 22 22 22 22 22 22 22 22 22 23 23 23 23 23 23 23 22 23 23 23 23 23 23 23 23 23 22 23 23 23 23 23 23 23 23 23 23 23 23 23 23 23 23 23 23 22 22 21 21 21 21 21 21 21 21 21 22 22 21 21 21 21 22 22 22 22 21 21 21 21 20 20 20 20 21 21 21 21
22 22 22 22 22 22 22 22 22 22 22 22 22 22 22 22 22 23 23 23 23 23 23 23 23 23 23 23 23 23 23 23 23 23 23 23 23 23 23 23 23 23 23 23 23 23 23 23 24 24 23 23 23 22 21 21 21 21 21 21 21 21 22 22 22 21 21 21 22 22 22 22 22 21 21 21 21 21 21 21 20 21 21 21 21
22 22 22 22 22 22 22 22 22 22 22 22 22 22 22 22 22 23 23 23 23 23 23 23 23 23 23 23 23 23 23 23 23 23 23 23 23 23 23 23 23 23 23 23 23 24 24 24 24 24 23 23 23 22 21 21 21 21 21 21 22 22 22 22 22 22 22 22 22 22 22 22 22 21 21 21 21 21 21 21 21 21 21 21 21
22 22 22 22 22 22 22 22 22 22 22 22 22 22 22 22 22 22 23 23 23 23 23 23 23 23 22 23 23 23 23 23 23 23 23 23 24 24 24 24 23 23 23 23 24 24 24 24 24 24 23 23 23 23 22 21 21 22 22 22 22 22 22 22 22 22 22 22 22 22 22 22 21 21 21 21 21 21 21 21 21 21 21 21 20
22 22 22 22 22 22 22 22 22 22 22 22 22 22 22 22 22 22 23 23 23 23 23 23 23 23 23 23 23 23 23 23 23 23 23 23 24 24 24 24 23 23 23 23 24 24 24 24 24 23 23 23 23 23 22 22 22 22 22 22 22 22 22 22 22 22 22 21 21 21 22 22 21 21 21 21 21 21 21 21 21 21 21 20 20
22 22 22 22 22 22 22 22 22 22 22 22 22 22 22 22 22 22 23 23 23 22 22 23 23 23 23 23 23 23 23 23 23 23 23 23 24 24 24 24 24 23 23 24 24 24 23 23 23 23 23 23 23 23 22 22 22 22 22 22 22 22 22 22 22 22 22 21 21 21 22 22 22 21 21 21 21 21 21 21 21 21 21 20 20
22 22 22 22 22 22 22 22 22 22 22 22 22 22 22 22 22 22 22 22 23 22 22 23 23 23 23 23 23 23 23 23 23 23 23 23 23 23 23 23 23 23 23 24 24 24 23 23 23 23 23 23 23 23 23 22 22 23 23 22 22 22 22 22 22 22 22 22 21 21 21 21 21 21 21 21 21 21 21 21 21 21 21 21 20
21 22 22 22 22 22 22 22 22 22 22 22 22 22 22 22 22 22 22 22 23 23 23 23 23 23 23 23 23 23 23 23 23 23 23 23 23 24 23 23 23 23 23 23 24 23 23 23 23 23 23 23 23 23 23 23 23 23 23 23 23 23 23 22 22 22 22 22 22 21 21 21 21 21 21 21 21 21 21 21 21 21 21 21 21
21 21 22 22 22 22 22 22 22 22 22 22 22 22 22 22 22 22 22 22 23 23 23 23 23 23 23 23 23 23 23 23 23 23 23 23 23 24 23 23 23 23 23 23 23 23 23 23 23 23 23 23 23 23 23 23 23 23 23 23 23 23 23 23 22 22 22 22 22 21 21 21 21 21 21 21 21 21 21 21 21 21 21 21 21
21 21 21 22 22 22 22 22 22 22 22 22 22 22 22 22 22 22 22 22 23 23 23 23 23 23 23 23 23 23 23 23 23 23 23 23 23 23 23 23 23 23 23 23 23 23 23 23 23 23 23 23 23 23 23 23 23 23 23 23 23 23 23 23 23 22 22 22 22 22 21 21 21 21 21 21 21 21 21 20 21 21 21 21 21
21 21 21 21 22 22 22 23 23 22 22 22 22 22 22 22 22 23 23 23 23 23 23 23 23 23 23 23 23 23 23 23 23 23 23 23 23 23 23 23 23 23 23 23 23 23 23 23 23 23 23 23 23 23 23 24 24 23 23 23 23 23 23 23 23 23 23 23 22 22 21 21 21 21 21 21 21 21 21 21 20 20 20 21 21
22 22 21 21 22 22 22 23 23 23 22 22 22 22 22 22 23 23 23 23 23 23 23 23 23 23 23 23 23 23 23 23 22 22 22 23 23 23 23 23 23 23 24 23 23 24 24 23 23 23 24 23 23 23 23 24 24 24 24 24 24 24 23 23 23 23 23 23 23 22 22 22 21 22 21 21 21 21 21 21 21 20 20 21 20
22 22 22 22 22 23 23 23 23 22 23 23 23 23 23 23 23 23 23 23 23 23 23 23 23 23 23 23 23 23 23 23 22 22 23 23 23 23 23 23 23 23 24 24 24 24 24 23 23 24 24 24 24 24 23 24 24 24 24 24 24 24 24 23 23 23 23 23 23 23 22 22 22 22 21 21 21 21 21 21 21 21 21 21 20
23 22 22 22 22 23 23 23 23 22 23 23 23 23 23 23 23 23 23 23 23 23 24 24 24 23 23 23 23 23 23 23 23 23 23 23 23 23 23 23 24 24 24 24 24 24 24 23 23 24 24 24 24 24 24 24 24 24 24 24 24 24 24 24 24 23 23 23 23 23 22 22 22 22 21 21 21 21 21 21 21 21 21 21 20
23 23 23 22 22 23 23 23 23 23 23 23 23 23 23 23 23 23 23 23 23 24 24 24 24 23 23 23 23 23 23 23 23 23 23 23 23 23 23 24 24 24 24 24 24 24 24 24 23 24 24 24 24 24 24 24 24 24 24 24 24 24 24 24 24 24 23 23 23 23 23 22 22 22 21 21 21 21 21 21 21 21 21 21 21
23 23 23 23 23 23 23 23 23 23 23 23 23 23 23 23 23 23 23 24 24 24 24 24 24 23 23 22 23 23 23 23 24 24 24 23 23 23 24 24 24 24 24 24 24 24 24 24 24 24 24 24 24 24 24 24 24 25 25 24 24 24 25 25 24 24 23 23 23 23 23 23 22 22 21 21 21 21 21 21 21 21 21 21 21
24 24 23 23 23 23 23 23 23 23 23 23 23 23 23 23 23 23 24 24 24 24 24 24 24 23 23 23 23 23 23 24 24 24 24 24 23 24 24 24 24 24 24 24 24 23 23 24 24 24 24 24 24 24 24 24 24 25 25 24 24 24 25 25 25 24 24 24 24 24 23 23 23 22 22 21 21 21 21 21 21 21 21 21 20
24 24 24 23 23 23 23 23 23 23 22 22 23 23 23 24 24 24 24 24 24 24 24 24 24 23 23 23 23 23 24 24 24 24 24 24 23 24 24 24 24 24 24 24 24 23 24 24 24 24 24 24 24 24 24 24 24 25 25 25 25 25 24 24 25 24 24 24 24 24 23 23 23 22 22 22 21 21 21 21 21 21 21 21 21
24 24 24 24 23 23 23 23 23 23 23 23 23 23 23 24 24 24 24 24 24 24 24 24 24 24 24 24 24 24 24 24 24 24 24 24 24 24 24 24 24 24 24 23 23 23 24 24 24 24 24 24 24 24 24 24 24 25 25 25 25 25 24 24 24 25 24 24 24 24 23 23 23 23 22 22 22 21 21 21 21 21 20 21 21
25 24 24 24 24 23 23 23 23 23 23 23 23 23 24 24 24 23 24 24 24 24 24 24 24 24 24 24 24 24 24 24 24 24 24 24 24 24 24 24 24 24 23 23 23 23 23 24 24 24 24 24 24 24 24 24 24 24 25 25 25 25 25 25 25 25 25 24 24 24 23 23 23 23 22 22 22 22 21 21 21 21 21 21 21
25 25 24 24 24 24 23 23 23 23 23 23 23 23 24 24 24 23 24 24 24 24 24 24 24 24 24 24 24 24 24 24 24 24 24 24 24 24 24 24 24 23 23 23 23 23 23 23 24 24 24 24 24 24 24 24 24 25 25 24 24 24 24 25 25 25 25 24 24 24 23 23 23 23 22 22 22 22 22 21 21 21 21 21 21
25 25 25 25 24 24 24 24 23 23 24 23 24 24 24 24 24 24 24 24 24 24 24 24 25 24 25 24 24 24 24 24 24 24 24 24 24 24 24 24 24 23 23 23 23 23 23 23 23 23 24 24 24 24 24 24 24 25 25 24 24 24 24 25 25 25 24 24 24 23 23 23 23 22 22 22 22 22 22 22 21 21 21 21 21
25 25 25 25 24 24 24 24 24 24 24 24 24 24 24 24 24 24 24 25 25 25 25 25 25 25 25 25 24 24 24 24 24 24 24 24 24 24 24 24 23 23 23 23 23 23 23 23 23 23 24 24 24 24 24 24 24 24 24 24 24 24 24 24 24 24 24 24 23 23 23 23 22 22 22 22 22 22 22 22 21 21 21 21 21
26 25 25 25 25 25 24 24 24 24 24 24 24 24 24 24 24 25 25 25 25 25 25 25 25 25 25 25 25 24 24 24 24 24 24 24 24 23 23 23 23 23 23 23 23 23 23 23 23 23 23 23 23 23 23 24 24 24 24 24 24 24 24 24 24 24 24 23 23 23 22 22 22 22 22 22 22 22 22 22 21 21 21 21 21
26 26 26 25 25 25 25 25 24 24 24 24 24 25 25 25 25 25 25 25 25 25 25 25 25 25 25 25 25 25 24 24 24 24 24 24 23 23 23 23 23 23 23 23 23 22 23 22 23 23 23 23 23 23 23 23 24 24 24 24 24 24 24 24 24 23 23 23 23 23 23 23 23 22 22 22 22 22 22 22 21 21 21 21 21
26 26 26 26 25 25 25 25 25 24 24 24 25 25 25 25 25 25 25 25 25 25 25 25 25 25 25 25 25 25 25 24 24 24 24 23 23 23 23 23 23 23 23 22 22 22 22 22 22 23 23 23 23 23 23 23 23 23 24 24 24 24 24 24 24 24 23 23 23 23 23 23 23 23 22 22 22 22 21 21 21 21 21 21 21
27 26 26 26 26 25 25 25 25 25 25 24 25 25 25 25 25 25 25 25 25 25 25 25 25 25 25 25 25 25 25 24 24 24 24 24 23 23 23 23 22 22 22 22 22 22 22 22 22 22 23 23 23 23 23 23 23 23 23 23 24 24 24 24 24 24 24 23 23 23 23 23 23 23 22 22 22 22 22 22 21 21 21 21 21
27 27 26 26 26 26 25 25 25 25 25 25 25 25 25 25 25 25 25 25 25 25 25 25 25 25 25 25 25 25 25 25 24 24 24 24 23 23 23 23 22 22 22 22 22 22 22 22 22 22 22 22 22 23 23 23 23 23 23 23 24 24 24 24 24 24 24 24 23 23 23 22 22 22 22 22 22 22 22 22 21 21 21 21 21
27 27 27 26 26 26 26 25 25 25 25 25 25 25 25 25 25 25 25 25 25 25 25 25 25 25 25 25 25 25 25 25 25 24 24 24 23 23 23 23 22 22 22 22 22 22 22 22 22 22 22 22 23 23 23 23 22 23 23 23 23 23 24 24 24 24 24 24 24 23 23 22 22 22 22 22 22 23 23 22 22 21 21 21 21
27 27 27 26 26 26 26 26 25 25 25 25 25 25 25 26 25 25 25 25 25 25 25 25 25 25 25 25 25 25 25 25 25 24 24 24 23 23 23 23 22 22 22 22 22 22 22 22 22 22 22 22 23 23 23 23 23 23 23 23 22 23 23 23 24 24 24 24 23 23 23 23 22 22 22 22 22 22 23 23 22 22 21 21 21
27 27 27 27 26 26 26 26 26 25 25 25 25 25 25 26 26 25 25 25 25 25 25 25 25 25 25 25 25 25 25 25 25 24 24 24 23 23 23 23 22 22 22 22 22 22 22 22 22 23 22 22 23 23 23 23 23 23 23 22 21 22 23 23 23 23 23 24 23 23 23 23 22 22 22 22 22 22 23 23 23 23 22 22 21
27 27 27 27 27 27 27 26 26 25 25 26 25 25 25 25 25 25 25 25 25 25 25 25 25 25 25 25 25 25 25 25 25 24 24 24 23 23 23 22 22 22 22 22 22 23 22 22 22 22 22 22 23 23 23 23 23 23 23 22 21 22 22 22 22 23 23 23 23 23 23 23 22 22 22 22 22 22 23 23 23 23 23 22 21
27 27 27 27 27 27 27 26 26 25 25 26 26 25 25 25 25 25 25 25 25 25 25 25 25 25 25 25 25 25 25 25 24 24 24 24 24 23 23 22 22 22 22 22 23 23 23 22 22 23 22 23 23 23 23 23 23 23 24 23 23 23 22 22 22 22 22 23 23 23 23 22 22 22 22 22 22 22 22 23 23 23 22 22 21
28 27 27 27 27 27 27 27 26 26 25 26 26 25 25 25 25 25 25 25 24 25 25 25 25 25 25 25 25 25 25 25 24 24 24 24 23 23 23 23 23 23 23 23 23 23 23 23 22 22 23 23 23 23 23 23 23 23 23 23 23 23 23 23 22 22 22 22 23 23 23 22 22 23 23 22 22 22 22 22 22 22 22 21 21
28 28 27 27 27 27 27 27 26 26 25 25 26 25 25 25 25 25 25 25 25 25 25 25 25 25 25 25 25 25 25 25 24 24 24 24 23 23 23 23 23 23 23 22 23 23 23 23 22 22 23 23 23 23 23 23 23 23 23 23 23 23 23 23 23 23 22 22 22 22 22 22 22 23 23 23 22 22 22 22 22 22 22 22 22
29 28 27 27 27 27 27 27 26 26 25 25 25 25 25 25 25 25 25 25 25 25 25 25 25 25 25 25 25 25 25 24 24 24 24 23 23 23 23 23 23 23 23 22 22 22 22 23 22 22 23 23 23 23 23 22 23 23 23 23 23 23 23 23 23 23 22 22 22 21 22 22 22 22 23 22 22 22 22 22 22 22 22 22 22
29 28 28 27 27 27 27 27 26 26 25 25 25 25 25 25 25 25 25 24 25 25 25 25 25 25 25 25 25 25 24 24 24 24 24 23 23 23 23 23 23 23 23 23 22 22 23 23 23 23 23 23 23 23 23 22 23 23 23 23 22 23 23 23 23 23 23 22 22 21 22 22 21 22 22 22 23 22 22 22 22 22 22 22 22
29 28 28 27 27 27 26 26 26 26 25 25 25 25 25 25 25 25 25 25 25 25 24 25 25 25 24 24 25 25 24 24 24 24 23 23 23 23 23 22 22 23 23 23 22 23 23 23 23 23 23 23 23 23 23 23 23 23 23 23 23 23 23 23 23 23 23 21 22 21 21 22 22 22 22 22 22 22 22 22 22 22 22 22 22
Height
814 815 817 818 820 820 822 822 823 823 824 824 824 826 826 827 828 828 829 829 829 830 831 832 833 834 835 835 836 836 837 838 840 840 840 841 841 842 842 843 843 844 844 843 843 843 843 843 843 843 843 843 843 843 842 842 842 841 841 841 841 841 841 841 841 841 841 841 841 841 841 841 841 841 842 843 843 843 843 844 845 845 845 846 846
813 815 817 819 820 821 822 822 824 824 825 825 826 827 828 829 829 830 830 831 831 832 833 834 834 835 836 837 837 838 839 840 841 841 841 842 842 842 843 844 844 844 844 844 844 844 844 844 844 844 844 844 843 843 843 843 842 842 842 842 842 842 842 842 841 842 842 842 842 842 842 843 843 843 843 843 844 844 844 845 846 846 846 847 847
813 816 817 819 820 821 823 823 824 825 826 826 827 828 829 830 830 831 832 832 833 834 834 835 836 837 837 838 839 839 840 841 841 842 843 843 843 844 844 845 845 845 844 844 844 845 844 844 845 845 845 844 843 843 843 843 843 843 843 843 843 842 842 842 842 842 842 842 843 843 843 844 844 844 844 844 845 845 845 846 846 847 847 847 847
814 816 817 819 821 822 823 824 825 825 827 827 828 829 830 831 832 832 833 834 834 835 836 836 837 838 839 839 840 841 841 842 843 843 844 844 844 845 845 845 845 845 845 845 845 845 845 845 845 845 845 844 844 844 844 844 844 844 843 843 843 843 843 843 843 843 843 843 844 844 844 844 845 845 845 845 846 846 846 847 847 848 848 848 848
814 816 818 820 821 823 824 825 826 827 827 828 829 830 831 832 833 834 834 835 836 837 837 838 839 839 840 841 842 842 843 843 844 844 845 845 845 846 846 846 846 845 845 845 846 846 846 846 846 846 845 845 844 844 844 844 844 844 844 844 844 844 844 844 844 844 844 844 844 845 845 845 845 846 846 846 846 847 847 847 848 848 849 849 849
815 816 818 820 822 824 825 826 827 828 829 829 830 831 832 833 834 835 836 837 837 838 839 839 840 840 841 842 843 843 844 844 845 845 846 846 846 847 846 846 846 846 846 846 846 846 846 846 846 846 845 845 845 845 845 844 844 844 844 844 844 844 844 844 844 845 845 845 845 845 845 846 846 846 846 847 847 847 848 848 849 849 849 850 850
815 817 819 820 822 824 825 826 827 829 830 831 831 832 833 834 835 836 837 838 839 840 840 841 841 842 842 843 844 844 845 845 846 846 847 847 847 847 847 846 846 846 846 846 846 846 846 846 846 846 845 845 845 845 845 844 844 843 844 844 844 844 845 845 845 845 845 845 846 845 846 846 847 847 847 847 848 848 849 849 849 850 850 851 851
815 817 819 821 822 824 825 827 828 829 831 832 832 833 834 835 836 837 838 839 840 841 841 842 842 843 843 844 845 845 846 846 847 847 848 848 848 848 847 847 847 847 846 846 846 846 846 846 846 845 845 845 845 845 845 844 844 844 844 844 844 845 845 845 845 846 846 846 846 846 846 846 847 847 848 848 848 849 849 850 850 851 851 852 852
816 817 819 821 822 824 826 827 828 830 831 832 833 834 835 836 837 838 839 840 841 842 842 843 843 844 844 845 846 846 847 847 848 848 849 849 849 848 848 847 847 847 847 847 846 846 846 846 845 845 845 845 845 845 845 844 844 844 844 845 845 845 845 845 845 846 846 846 846 846 847 847 847 848 848 849 849 850 850 851 851 852 852 852 853
816 818 820 821 823 825 826 828 829 830 832 833 834 835 836 837 838 839 840 841 842 842 843 844 844 845 846 846 847 847 848 848 849 849 850 850 849 849 848 848 848 847 847 847 846 846 846 846 845 845 845 844 845 844 844 845 845 845 845 845 845 846 845 846 846 846 846 846 847 847 847 847 848 848 849 850 850 850 851 851 852 853 853 853 854
816 818 820 822 823 825 827 828 829 831 832 833 835 836 837 837 839 840 841 842 842 843 844 844 845 846 847 847 848 848 849 849 850 850 850 850 850 849 849 848 848 848 847 847 846 846 846 845 845 844 844 844 844 844 845 845 845 846 846 846 846 846 846 846 846 846 847 847 847 847 847 848 848 849 849 850 851 851 852 852 853 853 854 854 855
816 818 820 822 824 826 827 829 830 831 832 834 835 836 837 838 840 840 842 843 843 844 844 845 846 847 847 848 849 849 850 850 850 851 851 850 850 850 849 849 848 848 847 847 846 846 846 845 845 844 844 844 844 844 845 846 846 846 846 846 846 846 846 847 847 847 847 847 847 848 848 848 849 850 850 851 852 852 853 853 854 854 855 855 856
817 819 820 823 824 826 828 829 830 831 833 834 836 837 838 839 840 841 842 843 843 844 845 846 847 847 848 849 849 850 850 850 851 851 851 851 850 850 849 849 848 848 847 847 846 846 846 845 845 844 844 844 845 845 846 846 847 847 846 846 846 847 847 847 847 847 847 847 848 848 848 849 849 850 851 851 852 853 854 854 854 855 855 856 856
817 819 821 823 825 827 828 830 831 832 834 835 836 837 839 840 841 842 843 843 844 845 845 847 847 848 849 849 850 850 850 851 851 851 851 851 850 850 850 849 849 848 848 847 847 846 846 845 845 844 845 845 846 846 846 847 847 847 847 847 847 847 848 848 848 848 848 848 848 849 849 850 850 851 851 852 852 853 854 855 855 855 855 856 857
818 819 821 823 825 827 829 830 831 833 834 835 837 837 839 840 841 842 843 844 844 845 846 847 847 848 849 849 850 850 851 850 851 851 851 851 851 851 850 850 849 849 848 848 847 846 846 846 845 845 846 846 847 847 847 847 847 848 848 847 847 847 848 848 848 848 848 848 849 849 850 850 851 851 852 852 853 853 854 855 855 855 856 856 857
819 820 822 824 825 827 829 831 831 833 834 835 837 837 839 840 841 842 843 844 845 846 846 847 848 848 849 849 850 850 850 850 851 851 851 851 851 851 850 850 849 849 848 848 847 847 847 846 846 846 847 847 847 847 847 848 848 848 848 847 847 847 847 848 848 848 848 849 849 850 850 851 851 852 853 853 853 854 855 855 855 855 856 856 857
819 821 822 824 826 827 829 830 831 833 834 836 837 838 839 840 842 842 843 844 845 846 846 847 848 848 849 849 850 850 850 850 850 850 851 851 850 851 850 850 849 849 849 848 848 847 847 847 847 847 848 848 847 847 847 848 848 848 847 847 847 847 847 847 848 848 849 849 850 851 851 851 852 852 853 854 854 854 855 855 855 856 856 857 857
820 821 822 824 825 827 829 830 832 833 834 836 837 838 839 840 842 842 844 844 845 846 846 847 847 848 848 849 849 849 850 850 850 850 850 851 850 851 850 850 850 849 849 849 848 848 848 847 848 848 848 848 848 847 848 848 848 848 848 847 847 847 848 848 848 849 849 849 850 851 851 852 852 852 853 854 854 855 855 855 856 856 857 857 858
820 822 822 824 825 827 828 830 831 832 834 835 837 838 839 840 841 843 843 844 845 846 846 847 847 847 848 848 849 849 850 850 850 850 850 851 850 851 851 851 850 850 850 849 849 849 848 848 848 849 849 849 848 848 848 848 848 848 848 848 848 848 848 848 848 849 849 850 850 851 852 852 852 853 853 854 855 855 855 856 856 856 857 858 858
821 822 823 824 825 827 828 830 831 832 834 835 837 838 839 840 841 843 843 844 845 845 846 846 846 847 847 848 848 849 849 849 850 850 850 850 850 851 851 850 850 850 850 849 849 849 849 849 849 849 850 850 849 849 849 849 848 848 848 848 848 848 848 849 849 849 849 850 850 851 852 852 853 853 853 854 854 855 855 856 856 856 857 858 859
821 822 823 824 825 827 827 829 830 832 834 834 836 837 839 840 841 842 843 844 844 845 845 846 846 846 847 847 848 848 849 849 849 850 850 850 850 851 851 850 850 850 850 850 850 850 850 849 849 850 850 850 849 849 849 849 849 848 848 848 848 848 849 849 849 849 850 850 850 851 851 852 853 853 853 853 854 854 855 856 856 856 857 858 859
820 821 822 823 824 826 827 829 830 831 833 834 836 837 838 839 840 842 842 843 844 845 845 845 846 846 847 847 848 848 848 849 849 850 850 850 850 850 850 850 850 850 850 850 850 850 850 850 850 850 850 849 849 849 850 850 849 849 848 848 848 848 849 849 849 849 850 850 850 850 851 852 853 853 853 853 854 854 855 856 856 857 857 858 859
818 820 821 822 823 825 826 828 829 831 832 834 835 836 838 838 840 841 841 842 843 844 844 845 845 845 846 846 847 847 848 848 849 849 850 850 850 850 850 850 850 850 850 850 850 850 850 850 850 850 850 850 849 849 849 849 849 849 849 849 848 848 849 849 849 849 849 850 850 850 851 851 852 852 853 853 854 854 855 856 856 857 858 858 859
816 817 819 821 823 824 826 827 828 830 831 833 834 835 837 838 839 840 840 841 842 842 843 844 844 845 846 846 847 847 848 848 848 849 849 850 850 850 850 850 850 850 850 850 850 850 850 850 850 850 850 850 849 849 849 849 849 849 849 849 848 848 848 849 849 849 849 849 849 850 850 851 851 852 852 853 854 854 855 856 856 857 857 857 858
814 817 818 820 821 823 824 826 828 829 830 832 833 834 835 837 838 838 839 840 841 841 842 843 844 845 845 846 846 847 848 848 848 849 849 849 849 850 850 850 850 850 850 850 850 850 850 850 850 850 849 849 849 849 849 849 849 849 849 848 848 848 848 848 848 849 849 849 849 850 850 850 851 851 852 853 854 854 855 855 856 856 856 857 857
814 816 817 818 820 822 823 825 827 828 829 831 832 833 834 835 836 837 838 839 840 840 841 842 843 844 845 845 846 847 847 847 848 848 849 849 849 849 849 850 850 850 850 850 849 849 849 850 850 849 849 849 849 849 849 849 849 849 848 848 848 848 848 848 848 848 848 849 849 849 849 849 850 850 851 852 853 854 854 855 855 855 855 856 857
812 814 815 818 819 820 823 824 825 827 828 830 831 832 833 834 835 836 837 838 839 839 840 841 842 843 844 845 845 846 846 846 847 847 848 848 849 849 849 849 849 850 850 850 849 849 849 849 849 849 849 849 848 848 849 849 849 848 848 847 848 847 847 847 848 848 848 849 849 849 849 849 849 850 850 851 852 852 853 853 854 854 855 856 857
810 813 814 816 818 819 821 822 824 825 827 828 830 831 832 833 834 835 836 837 838 838 839 840 841 842 843 844 844 845 845 846 846 846 847 848 848 848 848 848 849 849 849 849 849 849 849 848 849 848 848 848 848 848 848 848 848 847 847 847 847 847 847 847 847 847 848 848 849 849 849 849 849 849 850 850 851 851 851 852 852 854 855 857 858
809 811 813 814 816 818 819 821 822 824 825 827 828 830 831 832 833 834 835 836 836 837 838 839 840 841 842 843 843 844 844 845 845 846 846 847 847 847 847 848 848 849 849 849 849 849 849 848 848 848 848 848 847 848 848 848 847 847 847 846 846 846 846 847 846 847 848 848 848 849 849 849 849 849 849 850 850 850 850 851 852 854 855 857 858
807 809 811 812 814 816 818 819 821 822 824 826 827 828 830 831 832 833 833 835 835 836 837 838 839 840 841 841 842 843 843 844 845 845 845 846 846 846 847 847 847 848 848 848 848 848 848 848 848 848 848 847 847 847 847 847 847 846 847 846 846 846 846 846 846 846 847 848 848 848 848 848 848 848 849 849 850 850 850 851 852 854 855 856 857
806 808 809 811 813 815 816 817 819 821 823 824 826 827 828 829 830 831 832 833 834 835 836 837 838 839 840 840 841 842 843 843 844 844 844 845 845 845 846 846 846 847 847 848 848 848 848 848 848 848 847 847 847 847 847 846 846 847 847 846 846 846 846 846 846 846 846 847 848 848 848 848 848 848 848 849 849 849 850 851 851 853 854 855 856
804 805 807 809 811 813 814 816 818 820 822 823 824 826 827 828 829 830 831 832 833 834 835 836 837 838 838 839 840 841 842 842 843 843 843 844 844 845 845 845 846 846 847 847 848 848 848 848 847 847 847 846 846 846 846 846 846 847 846 846 846 846 846 846 845 845 845 846 847 848 848 848 848 848 848 849 849 849 850 850 851 852 853 854 855
801 803 805 807 809 811 813 815 817 818 820 821 823 824 825 826 828 828 830 831 832 833 834 835 835 836 837 838 839 840 840 841 842 842 843 843 844 844 844 844 845 846 847 847 847 848 847 847 847 847 847 846 846 846 846 846 846 846 846 846 846 846 846 845 845 844 844 845 847 848 848 848 848 848 848 848 849 849 850 850 851 852 852 853 854
800 802 804 805 808 810 812 813 815 817 818 820 821 822 824 825 826 827 828 830 831 832 833 834 834 835 836 837 838 838 839 840 841 841 842 843 843 843 844 844 845 845 846 846 847 847 846 846 846 846 846 846 846 846 846 846 846 846 846 846 846 846 845 845 845 844 844 845 846 847 848 848 848 848 848 848 849 849 849 850 850 851 851 852 853
799 800 802 804 806 808 810 812 813 815 817 819 820 821 823 823 825 826 827 829 830 831 832 832 833 834 835 836 837 837 838 839 840 840 841 842 842 843 843 844 844 845 845 845 846 846 845 845 845 845 845 845 845 846 846 846 846 846 846 846 846 846 846 845 845 845 845 846 847 847 848 848 848 848 848 848 849 849 849 850 850 851 851 851 852
797 798 800 802 805 806 808 810 811 813 815 817 818 820 821 822 824 825 826 827 828 830 830 831 831 832 833 834 835 836 837 838 838 840 840 841 841 842 843 843 844 844 844 845 845 845 845 845 845 845 845 845 845 845 845 845 845 846 846 846 846 846 846 846 846 846 846 846 847 848 848 848 848 848 848 848 849 849 849 849 850 850 850 851 851
794 797 799 801 803 804 806 808 809 811 813 816 817 819 820 821 822 824 825 826 827 829 829 830 830 831 832 833 834 835 835 836 837 839 840 840 841 841 842 842 843 843 844 844 844 844 844 844 844 844 844 844 844 845 845 845 845 846 845 845 845 845 846 846 846 846 846 847 848 848 848 848 848 848 848 849 849 849 849 849 849 850 850 850 851
793 795 797 799 800 802 804 806 808 810 812 814 816 817 819 820 822 823 824 825 826 828 828 829 829 830 830 831 833 834 835 835 837 838 839 840 840 841 841 842 842 842 843 843 843 843 843 843 843 843 843 843 844 844 844 845 845 845 845 845 845 845 845 846 846 846 847 848 848 848 848 848 848 848 849 849 849 849 849 849 849 849 849 850 850
791 793 795 797 799 801 803 804 806 808 811 813 815 816 817 819 820 822 823 824 825 826 827 828 828 829 829 830 831 832 834 834 835 837 838 839 839 840 840 840 841 841 841 842 842 842 842 842 842 842 842 842 843 843 844 844 844 844 844 845 845 845 845 845 846 846 847 847 848 848 848 848 848 848 849 849 849 849 849 849 849 849 849 849 850
789 791 793 795 797 799 801 803 804 806 809 811 813 815 816 817 819 820 821 822 823 825 826 826 827 827 828 829 830 831 832 833 834 835 836 837 838 838 839 839 840 840 840 840 841 841 841 841 841 841 841 842 842 842 843 843 843 844 844 844 845 845 845 845 845 846 846 846 847 848 848 849 848 848 849 849 849 849 849 849 849 849 849 849 850
786 788 790 792 793 796 798 800 802 804 807 808 810 811 812 814 815 817 818 819 821 822 824 825 825 826 827 828 829 830 831 832 833 834 835 836 836 837 837 838 838 838 839 839 840 840 840 840 840 841 841 841 842 842 842 843 843 843 843 844 843 844 844 845 845 845 845 846 846 848 848 848 848 848 849 849 849 849 849 849 849 849 849 849 850
782 784 785 788 790 793 795 797 799 801 803 805 807 808 809 810 812 813 815 817 818 820 821 822 823 824 826 827 827 828 829 830 831 832 834 834 835 835 836 836 837 837 838 838 838 839 839 839 839 840 841 841 842 842 842 843 843 843 842 842 843 843 843 843 844 845 845 845 846 848 848 848 848 848 849 849 849 849 849 849 849 849 850 850 850
777 780 782 785 787 789 791 793 796 798 800 803 804 806 807 809 810 812 814 815 817 818 820 821 822 823 824 825 826 827 828 829 830 831 832 833 834 834 834 835 835 836 836 837 837 837 838 838 839 839 840 841 842 842 842 842 843 842 842 843 844 844 844 843 843 844 845 845 846 847 848 848 848 848 848 849 849 849 849 849 849 849 850 850 850
774 777 779 781 783 785 787 789 792 794 797 800 802 804 806 808 810 812 813 815 816 817 819 820 821 821 822 823 824 825 826 827 828 829 830 831 832 832 833 833 834 834 835 835 836 836 837 838 838 839 840 840 841 842 842 842 843 842 843 845 845 846 848 846 843 844 844 845 847 847 848 848 848 848 849 849 849 849 850 849 849 849 849 849 850
770 772 774 776 777 780 782 785 788 791 794 796 799 802 805 807 809 811 813 814 815 816 817 818 818 819 820 821 822 823 825 826 827 828 829 829 830 831 831 831 832 833 833 834 835 836 837 838 838 839 840 841 841 841 842 842 842 842 843 844 846 848 849 846 844 845 845 845 847 847 848 848 848 848 848 849 849 849 849 849 849 849 849 849 849
765 767 769 771 774 777 780 783 785 788 791 793 797 799 801 804 805 807 809 810 812 812 812 814 815 816 817 818 820 822 823 824 825 826 827 828 828 829 829 830 830 831 832 833 835 836 837 837 838 839 840 841 841 841 841 842 842 842 842 842 844 845 845 844 846 847 846 846 847 848 848 848 848 848 848 848 848 849 849 849 849 849 849 849 850
760 762 765 768 771 774 777 780 782 785 788 790 793 796 798 800 802 803 805 806 807 808 809 811 812 813 815 817 818 820 821 822 823 824 825 826 826 827 827 828 829 830 832 833 834 835 836 837 838 839 839 840 840 840 841 841 841 842 842 842 842 842 842 843 845 847 848 848 848 848 849 848 848 848 848 848 848 849 849 849 849 849 849 849 849
755 759 762 765 767 770 773 776 779 782 784 787 790 792 794 796 798 800 802 803 804 805 807 809 810 812 813 815 816 818 819 821 822 822 823 824 824 825 826 827 829 830 831 832 833 834 836 836 837 838 839 839 839 839 840 840 841 841 841 841 841 841 842 842 843 844 847 849 849 848 848 848 848 848 848 848 848 849 849 848 848 848 848 849 849
751 755 758 761 763 766 770 773 776 779 781 784 787 789 791 793 795 797 799 801 802 804 806 807 809 810 811 813 814 816 817 819 820 821 821 822 822 823 825 826 828 829 830 831 832 833 834 835 836 837 837 838 838 839 839 839 840 840 840 841 841 841 842 842 843 843 844 847 849 848 847 848 849 848 848 848 849 849 849 848 848 848 848 848 848
746 749 752 756 760 763 767 770 772 775 778 781 784 786 788 790 792 794 796 798 800 802 804 805 807 808 809 811 812 814 815 816 818 818 819 819 821 822 824 825 827 828 829 830 831 832 833 834 835 835 836 836 837 838 838 839 839 839 840 840 840 840 841 841 842 842 843 845 847 847 846 847 848 848 848 848 848 848 849 848 848 847 847 847 847
741 745 748 751 755 759 763 766 768 772 775 778 781 783 786 787 788 790 792 794 796 799 801 802 804 805 807 808 810 811 813 814 815 816 817 818 819 821 822 824 826 827 828 829 830 830 831 832 833 834 834 835 835 836 837 838 838 838 839 839 840 840 840 840 840 841 842 842 845 846 845 845 846 846 846 846 847 848 848 848 847 847 846 846 846
Wind_Speed
19 20 23 24 23 25 26 25 26 27 27 28 27 26 25 25 25 26 28 28 28 28 27 27 26 26 25 24 23 22 22 21 20 20 20 19 19 18 18 17 16 15 15 15 15 14 14 14 14 15 14 14 13 11 10 10 10 10 11 11 11 11 11 12 12 12 12 12 12 12 12 11 11 11 12 12 12 13 14 14 15 15 14 14 13
23 22 24 24 23 24 25 25 26 27 27 28 27 25 24 24 25 25 26 26 27 27 26 25 25 24 23 23 22 22 21 20 20 19 19 18 18 17 17 16 15 15 14 14 14 13 13 13 13 13 13 12 12 11 10 9 9 9 10 10 11 11 11 12 12 12 12 11 11 11 11 11 10 10 12 12 12 12 14 14 15 15 14 13 13
25 25 24 24 24 25 25 25 27 27 27 27 26 25 24 24 25 25 25 25 26 26 25 24 24 23 22 22 21 21 21 20 19 18 18 17 16 16 15 15 15 14 14 14 13 12 12 12 12 12 11 11 11 10 9 9 8 9 9 10 9 10 11 11 12 12 11 11 11 10 10 10 9 10 11 11 11 12 14 14 14 15 14 14 14
26 27 25 24 24 25 24 25 26 26 26 26 25 24 24 25 25 24 24 24 24 24 24 23 23 22 21 21 21 20 20 19 18 17 17 16 15 14 14 14 14 14 13 13 12 11 11 12 11 10 10 10 10 9 9 9 9 8 9 9 9 10 11 10 11 12 11 10 10 10 9 9 9 9 10 11 12 13 14 14 14 14 14 14 14
27 27 26 25 24 25 25 25 25 25 25 25 25 24 24 24 24 24 23 23 23 23 23 22 22 21 21 20 20 19 19 18 17 16 15 15 14 14 13 13 13 13 13 12 11 11 11 11 10 9 9 8 8 8 8 9 9 9 9 9 9 10 11 10 10 10 10 10 11 10 10 9 8 8 10 12 12 13 13 14 14 14 14 14 14
28 27 26 26 25 25 25 25 24 24 24 25 25 24 24 24 24 23 23 23 22 22 22 22 21 20 20 19 19 18 18 17 16 15 14 14 13 13 13 13 13 12 12 11 10 10 10 9 9 8 7 7 7 7 7 8 8 8 9 9 9 9 10 9 9 9 10 10 11 11 10 10 9 8 10 11 12 13 13 13 14 14 13 14 14
29 29 27 26 25 25 25 25 25 24 24 24 25 24 23 23 23 22 22 22 21 21 21 21 20 20 19 19 18 17 17 16 16 15 14 13 13 13 13 12 12 11 11 10 9 9 8 8 7 7 6 6 6 7 7 7 7 7 9 9 9 9 9 9 8 10 11 11 11 11 10 10 9 7 9 11 12 13 13 13 13 13 13 13 13
29 30 29 28 26 26 26 25 25 24 24 24 24 24 23 22 22 21 21 21 21 20 20 20 19 19 18 18 17 17 16 16 15 14 13 13 12 13 12 12 11 10 9 8 8 7 7 6 6 5 5 5 5 6 6 7 7 7 9 9 9 9 9 9 9 10 12 11 10 10 10 10 9 7 9 11 12 12 12 13 13 13 13 13 13
29 29 30 29 27 27 27 26 25 24 23 24 23 23 23 22 21 21 20 20 20 20 19 19 19 18 17 17 16 16 15 15 14 14 13 12 12 13 12 12 11 10 8 7 6 6 5 5 4 4 4 4 4 5 5 6 6 6 8 8 9 10 10 10 11 12 12 12 10 10 10 10 9 8 9 9 10 11 12 13 12 12 12 12 13
29 29 30 29 29 29 28 27 25 24 23 23 23 23 22 22 21 20 20 19 19 19 19 18 18 17 16 16 16 15 15 14 14 13 12 12 12 13 12 12 11 9 8 7 6 6 5 4 3 3 3 4 4 4 5 6 5 5 7 8 8 9 11 12 12 13 13 12 11 10 10 10 9 9 9 9 10 11 12 12 12 12 12 12 12
28 29 30 30 31 29 29 27 25 24 23 22 22 22 22 21 21 20 20 19 19 19 18 18 17 16 16 15 15 14 14 13 13 13 12 11 12 12 12 11 10 9 9 9 8 8 6 5 3 3 4 4 4 4 4 5 6 5 6 7 8 9 10 11 11 12 13 12 11 10 10 10 10 10 9 9 10 10 10 11 12 11 12 12 12
29 30 30 31 31 30 29 26 25 24 23 22 22 21 21 21 21 20 20 19 19 18 18 17 16 16 15 15 14 14 13 12 12 12 12 11 11 11 11 10 10 10 10 10 9 9 7 6 5 5 5 4 4 4 4 5 6 6 6 7 7 8 9 10 10 11 13 13 11 10 10 10 9 10 10 10 10 9 10 12 12 11 11 12 12
29 30 31 32 31 30 28 26 25 24 24 23 22 21 21 21 20 20 20 19 19 18 17 16 16 15 15 14 14 13 12 12 12 11 11 11 11 10 10 10 9 10 10 10 9 9 8 7 8 8 8 6 5 5 5 5 6 6 6 6 7 8 9 10 11 11 12 12 11 10 10 10 10 10 10 10 10 9 10 12 11 11 11 11 11
29 30 32 32 31 30 28 26 26 25 24 23 21 21 20 20 20 20 20 19 18 17 17 16 15 15 15 14 13 13 12 11 11 11 11 10 10 10 10 9 9 9 9 9 9 9 9 8 9 9 9 9 8 7 6 5 6 6 6 6 6 8 9 10 11 12 12 11 11 10 9 10 10 10 11 10 10 10 10 11 10 11 11 11 11
30 31 32 32 31 29 28 27 26 24 23 22 21 20 20 20 20 20 20 19 18 17 16 15 15 14 14 14 13 13 11 11 11 10 10 9 9 9 9 9 8 8 8 8 8 9 9 8 8 9 9 10 10 10 8 7 7 7 7 6 7 8 8 9 11 13 12 11 10 9 9 9 10 11 11 11 11 11 12 12 11 11 11 11 11
31 31 31 31 30 29 28 27 25 24 22 21 20 20 20 20 20 20 20 19 18 17 16 15 15 14 14 14 13 13 11 11 10 10 9 8 8 9 9 8 8 7 7 7 8 8 8 8 8 9 10 10 10 10 9 8 8 8 8 7 7 7 8 9 10 13 12 11 10 9 9 10 11 11 11 11 12 12 12 12 11 11 12 12 11
31 31 31 30 29 28 27 26 24 23 22 21 20 20 20 20 20 19 19 19 18 17 16 15 15 15 14 13 13 12 11 10 10 9 8 8 7 8 8 8 7 7 6 6 7 8 7 7 7 9 10 10 10 10 9 9 8 8 8 7 7 7 7 8 9 12 13 11 9 8 9 11 11 11 11 11 12 12 12 12 12 12 12 13 12
31 30 30 29 28 26 26 24 23 23 22 21 21 20 20 20 20 19 19 18 18 17 16 15 15 15 14 13 13 12 11 10 10 9 8 7 7 7 7 7 7 7 6 7 7 7 6 5 7 8 10 11 10 10 10 10 8 7 7 7 6 7 7 8 9 11 12 12 9 7 8 11 12 12 12 12 12 12 12 12 12 12 12 13 12
29 29 29 28 27 25 25 24 24 23 23 22 22 21 21 21 20 20 19 18 18 17 16 16 15 15 14 13 13 11 10 10 9 9 8 7 7 7 6 6 6 7 7 7 7 7 6 5 6 7 8 9 9 9 9 9 8 7 6 6 6 6 6 8 8 8 10 11 9 7 8 10 11 12 12 12 12 12 12 12 12 11 12 12 12
28 29 29 28 28 27 26 25 25 24 24 24 23 22 21 21 20 20 19 18 18 17 17 16 15 15 14 14 13 12 11 10 9 9 8 7 7 6 5 5 4 6 6 6 7 7 6 5 6 6 6 7 6 7 8 7 7 6 5 4 5 5 5 7 8 8 8 9 9 8 8 9 11 12 12 12 12 12 12 12 12 12 12 12 12
26 28 28 29 28 28 28 26 26 25 25 25 24 23 22 21 20 19 19 19 18 17 17 16 16 15 14 14 13 12 11 10 10 9 8 8 7 6 5 3 3 4 5 6 7 7 7 6 5 5 5 5 4 5 6 7 6 5 5 4 4 5 6 6 7 8 8 8 8 8 8 9 10 11 12 12 12 12 12 12 12 12 12 12 11
26 27 28 29 29 29 28 28 27 26 26 25 25 24 22 21 21 20 20 19 18 18 17 17 16 15 14 14 13 12 12 11 10 9 8 8 7 6 4 3 3 4 5 7 7 7 7 6 5 5 5 5 4 3 4 5 5 5 5 5 4 5 5 5 6 8 8 7 8 8 9 9 10 11 11 12 12 12 13 13 12 12 12 12 12
27 27 28 29 30 30 30 29 29 28 27 26 26 25 23 23 23 22 21 20 19 18 18 17 16 16 15 14 13 12 12 11 10 9 8 8 7 6 5 3 3 5 6 6 6 6 5 5 5 5 5 6 5 4 3 3 4 4 4 5 6 6 5 5 6 7 8 7 8 8 8 10 11 12 11 11 11 12 13 13 12 12 12 12 12
29 29 30 29 30 31 31 31 30 29 29 28 27 26 25 24 24 23 22 21 20 19 18 18 17 16 15 14 13 12 12 10 9 8 7 6 7 6 5 4 4 5 6 5 5 5 5 5 5 5 5 5 6 4 4 3 3 3 3 3 4 6 6 5 6 5 6 7 7 8 8 10 12 12 12 11 11 11 12 12 13 12 12 13 13
30 29 29 29 31 32 32 32 31 30 30 29 28 27 26 25 24 24 23 22 20 20 19 18 17 16 15 14 13 12 11 9 8 8 8 7 6 6 5 4 4 5 6 6 5 6 6 5 5 5 4 4 4 3 3 3 2 2 2 2 1 3 4 5 5 5 5 7 7 7 8 9 11 13 12 12 12 11 11 12 13 13 13 13 13
29 29 30 30 32 33 33 32 32 31 30 29 29 28 27 26 26 25 23 22 21 20 19 18 17 16 15 14 13 12 11 10 9 9 9 8 7 6 5 4 5 5 6 6 6 6 5 5 4 4 4 2 2 2 2 1 1 1 1 1 1 1 1 2 4 6 7 7 7 7 8 9 10 12 12 12 12 12 12 12 13 13 14 14 14
29 29 30 30 32 33 33 32 32 32 31 30 29 29 28 27 27 25 24 23 21 21 20 19 18 17 15 14 14 13 11 10 10 10 9 9 8 7 5 5 5 5 6 7 6 5 4 4 4 3 2 1 2 3 2 2 3 4 4 3 3 3 3 3 4 6 7 7 8 7 8 9 10 12 12 13 13 13 13 13 13 14 14 14 14
28 28 30 30 31 33 33 33 33 32 31 30 30 30 29 27 26 25 24 23 22 22 21 20 18 18 16 15 14 12 11 10 11 11 10 10 8 7 6 7 6 7 7 7 6 5 4 4 4 3 2 2 2 2 1 0 2 4 4 3 3 2 3 4 6 6 7 7 7 7 6 8 9 11 12 13 14 14 15 15 14 14 13 13 13
28 29 29 30 32 32 33 34 33 33 31 31 30 30 29 27 26 25 24 23 23 22 21 19 19 18 16 15 14 13 12 11 10 10 11 11 9 7 8 7 7 7 7 7 7 5 5 6 5 4 4 2 2 0 1 2 4 2 3 3 2 2 3 4 6 7 7 7 7 6 5 6 8 10 12 12 13 14 15 16 15 14 13 13 13
30 30 30 31 32 32 33 34 34 33 31 30 30 30 29 28 26 25 24 23 23 21 20 19 18 18 17 16 15 14 12 11 10 10 11 12 10 9 8 8 7 8 8 8 8 7 6 7 6 6 5 4 3 1 2 3 5 5 3 3 3 2 2 2 3 5 7 7 6 6 5 5 6 8 11 12 12 14 15 15 16 15 14 14 14
30 31 31 32 32 33 33 34 34 33 32 30 30 29 29 29 27 25 24 23 22 20 19 19 18 17 17 17 16 15 13 11 10 10 11 11 12 11 9 9 8 8 10 10 10 10 9 9 8 6 5 5 4 2 2 2 4 4 2 2 3 3 2 2 1 3 7 8 7 7 6 6 6 6 9 11 12 13 14 14 15 15 16 15 15
31 33 33 32 32 33 34 34 35 34 32 31 30 28 28 28 27 25 23 22 20 19 19 19 18 17 17 17 16 15 14 12 11 11 11 12 13 12 10 11 10 10 11 12 11 10 10 9 8 6 5 6 6 2 1 1 3 2 3 1 2 2 3 4 3 3 6 9 10 9 8 8 7 6 6 8 10 12 13 13 14 14 15 16 16
32 34 33 33 33 34 34 34 35 35 33 32 31 28 27 28 27 25 23 22 21 20 19 19 18 17 17 17 17 16 15 13 12 12 13 13 14 12 11 11 10 11 12 12 11 10 10 9 7 6 6 7 6 2 1 1 2 2 6 3 2 1 4 5 3 1 5 9 12 10 9 8 8 8 7 6 7 9 11 12 14 13 13 15 16
31 32 33 34 34 33 33 34 35 36 35 32 31 29 27 28 27 25 24 23 22 21 20 20 19 18 19 18 17 18 16 15 14 14 14 14 13 13 12 12 11 12 13 12 11 10 9 8 7 6 6 7 7 3 1 1 2 2 4 1 1 2 5 6 3 5 8 11 13 10 9 9 8 9 8 7 6 6 8 9 10 11 13 14 15
31 33 34 34 34 33 33 33 35 37 35 32 32 31 28 28 27 25 25 24 23 22 21 21 21 20 20 20 19 19 18 17 16 15 15 14 14 13 13 12 12 12 12 12 11 10 9 8 8 7 6 8 8 4 1 1 4 2 1 1 1 1 4 7 5 6 10 12 11 10 9 9 9 8 8 8 7 6 6 7 7 9 11 14 15
33 34 35 35 34 33 34 33 35 37 35 33 32 31 29 28 27 25 24 24 24 23 21 20 21 21 21 21 20 21 21 20 18 16 16 16 15 14 13 12 12 12 11 11 11 11 10 9 8 7 7 9 8 4 1 2 6 4 1 2 2 1 2 5 6 7 11 12 11 11 10 10 9 9 8 8 8 7 6 6 7 8 9 11 13
35 35 35 36 35 34 34 33 35 37 36 32 31 30 29 28 28 25 24 24 24 23 21 21 21 22 22 21 20 21 22 22 20 18 17 17 16 14 12 11 11 11 10 11 11 11 10 9 8 7 7 9 7 5 2 3 5 4 2 2 2 1 1 3 6 8 11 12 12 12 12 11 10 9 8 8 8 8 7 7 7 8 8 10 11
36 37 37 37 36 35 35 34 35 37 36 33 31 30 29 28 27 25 24 24 24 23 22 22 21 21 22 21 20 20 22 22 20 19 17 17 16 14 12 11 11 10 10 10 10 10 10 9 8 7 8 9 7 5 2 2 3 2 1 3 3 2 2 3 4 9 10 10 11 13 13 13 11 10 10 9 8 7 7 7 7 8 10 10 9
36 37 38 38 36 36 36 34 35 36 36 34 31 30 29 28 27 26 25 24 24 24 24 24 22 21 22 21 20 20 21 20 20 18 16 15 15 14 13 12 11 11 10 11 11 11 10 9 8 8 10 9 6 4 3 3 3 1 1 3 4 3 3 4 5 6 7 8 12 13 14 14 13 12 11 10 9 8 6 5 6 8 10 10 9
36 37 38 38 37 36 36 34 35 36 36 35 32 31 31 30 29 27 27 26 26 26 26 25 24 22 22 21 20 20 20 19 19 17 16 15 15 15 14 13 12 11 11 11 11 11 10 9 9 10 11 9 7 5 4 4 2 2 3 4 5 4 3 2 4 5 3 6 14 15 14 14 13 13 11 10 9 7 5 4 4 6 8 8 8
36 38 39 40 39 38 37 36 36 37 37 36 34 33 33 32 31 30 30 29 28 27 26 26 25 23 22 21 20 20 19 19 18 18 16 15 15 15 14 14 13 13 11 10 10 10 9 9 10 11 10 8 8 7 6 5 4 3 4 5 4 4 4 2 2 3 3 7 17 17 15 16 15 13 12 9 8 6 5 5 5 5 5 5 5
36 39 40 41 40 39 39 38 38 39 39 38 36 34 35 34 33 32 31 30 29 29 28 27 25 23 22 21 21 20 20 19 19 18 17 16 15 15 15 15 15 14 11 9 9 10 10 12 12 11 9 8 8 7 7 7 4 3 3 1 1 2 4 2 1 3 3 11 19 18 17 17 16 14 12 10 8 7 6 5 6 6 6 4 3
38 39 40 40 40 39 39 39 40 40 40 40 38 35 36 35 33 32 31 29 28 28 26 25 24 24 24 23 22 21 20 20 20 19 18 17 15 15 15 15 15 14 13 11 12 12 13 14 12 10 9 9 8 7 7 8 6 5 4 2 1 0 2 3 1 2 4 16 20 19 19 18 17 14 12 11 9 8 6 4 6 6 5 4 3
37 38 39 40 41 41 41 41 41 41 41 41 39 36 35 35 33 31 31 28 26 25 25 25 24 23 24 25 24 22 21 20 20 19 18 18 16 15 15 15 16 15 14 14 14 15 15 14 12 10 10 9 8 7 9 9 8 5 3 2 1 2 1 2 2 3 8 20 21 19 19 19 19 15 13 11 9 7 6 5 5 5 5 4 3
37 39 41 42 42 42 42 41 42 42 41 41 40 37 35 34 32 29 28 26 23 24 25 26 26 23 23 25 24 23 22 20 20 19 19 18 17 16 15 16 17 16 15 15 16 16 16 14 12 11 10 9 7 7 9 9 8 7 4 3 1 1 2 3 1 4 10 21 21 19 20 20 19 16 14 12 9 8 6 6 6 4 4 6 5
37 41 43 44 42 41 41 40 41 42 42 42 41 39 36 35 32 29 28 26 23 25 28 28 29 27 25 24 24 23 22 21 20 20 19 18 17 17 16 16 17 17 17 17 17 15 14 13 12 11 10 9 7 8 10 10 8 6 6 6 3 2 3 2 2 3 5 14 18 19 20 20 18 16 15 12 10 10 8 7 7 4 4 5 5
38 42 43 43 42 40 40 40 41 41 42 42 42 40 38 36 35 32 31 30 27 28 30 30 30 30 27 25 25 25 24 22 21 20 19 18 18 18 17 17 17 18 19 19 17 14 13 14 14 13 12 11 9 9 12 12 8 6 6 8 5 5 6 3 2 3 3 5 12 16 16 18 18 15 14 14 12 11 10 10 7 5 4 4 3
39 39 39 41 42 41 42 41 40 41 42 42 43 42 40 38 37 34 32 32 31 30 31 31 30 29 28 25 25 25 25 23 22 20 19 19 19 20 19 18 18 20 21 20 17 15 15 15 14 14 14 12 10 11 14 14 10 8 8 9 6 5 5 3 3 4 4 3 6 9 10 13 17 16 15 14 13 11 10 11 9 7 6 5 3
39 39 40 42 42 43 42 41 39 39 40 42 44 43 41 39 38 35 33 33 33 31 30 30 30 29 29 27 25 25 25 24 23 21 21 21 21 22 21 20 20 20 20 19 18 17 17 17 15 15 15 13 11 11 14 14 12 10 10 9 7 6 5 4 4 4 5 3 2 4 6 9 12 16 16 15 13 11 10 11 10 8 7 7 5
41 42 43 42 42 42 41 41 39 38 40 42 44 43 42 39 38 37 35 33 33 30 28 29 30 30 29 28 26 26 25 25 23 22 22 23 23 23 22 21 20 20 20 19 18 18 19 18 18 17 16 14 13 12 13 13 11 12 12 10 9 9 6 4 5 5 4 4 3 3 6 8 9 14 18 17 15 13 12 12 11 10 9 9 8
40 41 41 41 42 42 41 42 41 39 39 41 43 43 41 40 39 38 37 35 34 31 28 29 30 30 29 29 28 27 26 26 25 24 24 24 24 23 22 22 21 20 20 20 20 19 18 18 20 19 17 16 15 14 14 12 12 12 12 12 11 11 10 7 7 8 5 4 5 3 5 8 9 13 18 19 18 16 15 14 12 11 10 11 11
Wind_Direction
148 144 145 146 143 143 137 134 131 130 129 127 126 123 121 119 119 119 120 119 119 117 116 115 115 115 114 114 113 112 113 114 114 113 110 106 105 103 101 101 101 101 98 94 91 89 88 89 89 90 92 93 95 98 100 101 105 109 110 105 100 101 101 100 98 97 97 98 100 104 104 103 106 113 117 115 110 109 111 111 108 105 103 103 103
149 148 148 148 144 146 141 136 135 132 131 129 127 125 123 121 121 120 119 119 119 118 116 116 115 116 116 116 115 115 116 116 116 114 111 109 107 104 103 103 101 100 97 93 90 89 90 90 90 92 93 93 94 96 100 103 105 109 111 108 104 104 106 107 104 101 101 101 102 106 109 109 110 114 118 117 113 112 114 113 109 106 105 104 103
147 149 149 149 146 148 144 140 138 135 133 131 130 128 126 124 123 120 120 120 120 120 118 117 118 119 119 118 117 117 118 118 116 114 114 112 109 106 104 103 101 98 95 93 90 88 90 89 88 90 94 96 96 96 99 100 102 106 111 111 108 109 114 115 112 109 105 104 104 107 109 113 113 117 122 119 117 117 118 116 110 108 107 105 104
150 149 149 149 147 148 147 143 140 138 136 135 133 131 129 127 125 122 121 121 120 121 120 120 121 122 121 120 119 118 119 118 116 115 114 112 109 108 107 103 99 96 92 91 91 89 87 86 88 88 90 94 97 97 97 95 95 101 111 117 112 112 118 119 116 113 111 109 110 111 109 110 112 122 128 123 121 122 121 118 113 111 109 107 105
151 150 149 147 146 148 148 145 142 141 139 138 137 134 131 129 127 125 124 123 122 122 122 123 124 124 123 121 120 120 120 119 118 117 115 112 111 109 106 101 97 93 90 89 89 90 87 86 87 88 90 92 95 97 95 92 92 99 112 119 113 114 122 123 118 116 115 114 113 112 107 105 106 120 129 128 128 127 125 120 116 113 109 107 105
150 149 149 146 148 150 149 148 145 144 142 140 140 138 135 132 131 129 128 126 125 124 124 125 126 127 125 123 121 121 121 120 120 119 116 114 113 109 104 98 94 91 88 87 86 87 87 87 87 89 92 94 96 96 95 91 90 99 112 120 117 117 124 126 121 125 125 115 112 112 109 107 107 119 130 134 134 130 127 122 119 115 111 109 107
150 150 151 150 152 152 152 150 147 146 144 144 143 142 139 137 135 132 131 129 127 127 126 127 128 129 127 125 124 124 123 123 123 121 119 117 114 107 100 94 91 88 87 85 83 83 83 85 88 90 93 97 97 96 98 96 93 97 108 119 123 119 120 125 126 132 133 120 114 113 111 111 110 119 131 136 135 131 129 126 122 118 114 112 109
152 153 154 154 155 154 154 150 148 148 147 147 146 146 144 141 139 136 134 131 130 129 129 129 131 132 129 128 128 127 126 126 125 123 121 117 112 103 96 90 86 84 83 82 81 81 83 86 89 93 95 98 98 97 99 101 102 98 102 114 121 117 114 123 131 135 138 129 118 116 117 116 114 119 129 135 134 132 133 130 125 120 116 113 111
156 156 157 157 156 155 154 152 150 150 149 149 149 150 148 145 143 140 137 134 134 133 132 133 134 135 133 132 131 129 127 127 125 123 121 116 108 100 92 85 80 77 75 77 80 84 88 89 92 102 106 105 103 101 100 101 106 99 98 107 112 112 117 126 134 138 140 137 126 123 125 124 122 122 127 135 135 137 138 134 127 121 118 116 112
157 158 159 158 157 157 156 154 151 150 151 152 152 153 152 149 146 142 141 139 137 137 136 136 137 137 137 136 133 129 128 126 125 123 119 113 104 96 89 81 76 74 74 74 75 81 89 95 107 125 128 127 121 113 111 106 105 99 92 97 102 106 118 129 134 138 143 144 138 130 128 131 129 126 129 136 140 140 140 136 129 125 122 120 114
159 159 159 159 158 158 158 155 152 152 153 153 154 154 154 151 148 145 144 143 141 141 140 139 139 140 140 137 133 129 127 126 125 123 118 110 101 93 86 79 78 79 79 76 73 75 78 83 96 124 134 139 134 134 125 114 110 105 96 94 100 105 114 128 133 138 148 153 147 136 133 138 133 131 133 138 142 141 139 135 129 127 126 124 118
161 161 160 159 159 160 160 157 155 155 155 153 154 154 154 153 150 148 147 146 145 145 143 142 142 142 142 138 134 129 128 128 126 124 120 110 101 95 87 80 82 82 81 79 79 76 73 71 79 99 110 117 123 135 126 112 115 111 104 98 101 103 106 127 139 140 148 155 149 141 140 143 138 135 137 137 140 140 139 134 132 131 129 127 122
162 163 162 161 160 162 162 161 159 157 157 155 155 155 154 154 152 151 150 149 149 148 146 145 145 145 144 140 135 132 132 131 130 128 122 113 106 100 90 82 85 84 82 82 83 79 75 77 84 93 97 98 98 113 113 102 113 114 107 100 100 103 108 127 143 143 147 153 146 140 143 144 142 140 141 139 138 138 136 133 135 135 132 131 127
159 161 161 162 162 164 164 163 162 159 160 159 157 157 156 157 155 153 152 152 151 151 150 149 149 148 146 142 139 136 136 135 133 132 125 117 112 106 93 85 88 88 87 87 87 83 82 87 91 94 94 92 86 89 98 99 107 112 109 102 98 101 109 125 141 145 149 155 146 137 142 147 144 141 143 141 139 138 135 134 136 136 135 136 132
157 158 159 162 162 164 165 165 164 162 164 164 163 161 160 160 158 156 156 155 154 154 154 153 153 151 150 147 145 142 140 140 137 137 131 124 118 112 98 87 90 90 92 93 90 87 87 92 94 96 93 89 85 83 89 97 101 108 110 106 104 103 109 122 141 150 154 160 150 136 141 148 145 141 142 141 141 139 137 136 136 138 138 139 137
158 158 158 160 161 163 164 166 166 164 166 168 168 166 164 163 161 160 160 160 159 158 158 158 159 155 154 152 149 147 146 143 141 143 138 131 123 116 104 90 90 90 95 98 93 88 88 94 97 97 94 90 89 90 91 93 100 110 114 113 112 109 114 123 141 156 160 163 155 138 142 151 147 144 143 143 143 142 141 140 139 138 139 141 141
160 159 159 159 161 162 163 166 167 166 168 169 168 167 166 166 165 164 164 165 164 163 163 164 164 161 160 157 154 153 151 148 147 149 146 141 131 119 108 96 97 97 100 102 97 92 91 95 98 98 96 95 96 100 99 98 105 115 120 122 123 119 120 127 141 157 164 164 159 147 146 153 150 149 149 147 146 146 146 145 142 138 138 141 141
162 161 160 159 160 162 163 165 168 167 168 169 168 169 168 168 168 167 168 169 168 167 168 168 167 167 166 161 160 159 155 154 154 156 154 151 141 127 113 102 102 104 107 107 104 99 98 95 99 103 98 96 97 102 105 108 113 122 130 127 130 132 128 134 141 154 164 165 164 158 154 155 152 153 155 153 151 149 149 147 144 140 139 141 144
163 163 161 161 162 164 166 166 168 169 169 170 170 171 171 171 171 171 171 171 171 170 170 170 170 171 169 167 166 164 162 160 159 162 162 157 148 138 123 107 101 103 109 110 113 114 111 100 98 109 103 95 96 102 107 116 121 123 128 123 120 127 133 141 144 153 162 163 165 161 159 160 155 157 160 158 157 155 153 150 147 144 143 144 149
165 166 165 165 165 167 168 168 171 171 171 171 172 174 174 175 175 175 175 174 174 173 173 173 173 174 173 171 169 168 169 167 166 167 166 160 153 147 134 118 106 105 111 114 119 122 123 112 105 112 107 96 92 93 99 112 124 115 112 120 119 121 136 150 152 156 158 157 161 161 163 167 161 160 163 163 163 161 158 156 154 152 149 149 151
168 169 169 169 169 171 171 171 173 174 174 174 174 175 176 179 178 178 178 177 177 176 176 176 176 176 175 173 172 173 173 173 172 171 166 160 153 144 135 126 119 119 120 122 123 121 122 120 114 110 102 98 88 77 86 103 118 111 104 117 124 125 140 156 159 161 159 155 159 163 168 173 169 166 167 167 167 166 164 162 161 158 156 154 154
170 172 173 173 173 175 175 175 176 176 177 176 176 176 177 181 181 181 181 180 180 179 180 179 178 177 176 177 176 176 175 175 173 170 164 155 149 134 127 127 132 147 141 131 126 122 119 115 110 105 98 93 86 71 81 102 113 111 107 110 114 121 136 152 162 165 163 157 157 164 169 174 175 173 172 171 170 170 169 169 168 164 162 160 159
172 174 175 176 177 178 179 179 179 179 180 179 179 178 179 184 184 183 183 182 182 183 183 181 180 178 179 180 178 178 178 177 173 172 167 155 153 139 129 131 142 153 152 140 130 125 118 108 100 97 90 82 83 76 65 83 100 104 105 108 111 114 119 132 149 164 169 159 152 160 170 175 177 179 179 175 172 173 173 174 173 171 169 168 167
175 176 176 178 181 180 182 183 182 182 182 182 182 181 183 186 187 186 186 185 184 186 186 183 182 181 182 181 180 182 181 179 176 181 187 173 165 162 150 144 150 154 155 149 132 122 116 106 95 90 85 87 91 73 41 45 68 80 87 93 105 112 116 126 131 145 162 159 153 158 169 178 179 182 183 179 177 177 177 178 178 178 177 176 175
176 176 177 180 184 183 183 185 185 185 185 185 185 185 186 188 189 189 189 187 187 188 187 186 185 185 185 184 184 185 185 187 191 198 205 200 186 186 186 172 167 162 160 156 138 122 113 107 101 87 76 88 91 65 30 32 57 70 77 72 80 114 123 138 136 128 141 154 159 159 165 177 181 183 184 184 184 180 180 183 183 183 184 183 181
176 178 179 182 187 186 186 186 186 187 188 188 188 189 189 190 191 191 191 190 191 190 189 190 188 188 188 187 188 187 190 195 203 206 205 208 205 206 208 200 190 173 164 158 140 125 112 107 104 85 66 58 43 28 353 334 315 324 339 314 287 264 193 171 156 138 133 145 160 165 168 174 180 183 184 187 188 185 184 186 188 189 188 188 186
178 181 182 184 188 189 188 188 188 189 191 192 192 192 193 193 193 193 194 192 192 191 191 191 190 190 187 189 191 190 193 198 204 206 202 205 207 212 215 208 194 175 167 155 143 138 129 118 111 100 69 333 328 348 335 290 288 312 302 268 250 244 235 221 194 162 145 145 157 166 177 179 180 183 185 189 190 191 191 189 190 193 192 191 190
178 181 184 185 189 191 190 190 189 190 192 194 195 195 196 196 195 196 196 195 195 194 193 192 192 192 188 192 197 195 198 202 205 203 199 202 205 213 217 211 195 176 169 157 147 154 164 156 145 157 208 283 322 350 14 313 332 320 275 229 208 197 182 188 197 186 164 154 159 163 177 186 185 185 187 192 194 197 196 193 193 193 194 194 192
179 181 184 186 189 191 191 191 191 191 193 195 197 198 198 199 198 198 199 198 199 197 195 195 195 193 192 198 203 202 204 207 207 204 202 203 203 213 218 211 198 184 174 162 159 164 172 170 173 201 227 280 318 342 87 38 28 25 195 177 179 159 126 161 190 202 185 167 164 159 166 178 185 189 191 195 198 202 202 199 198 194 195 196 197
181 182 184 186 189 191 192 193 192 192 194 196 199 199 200 200 200 200 200 200 201 200 199 199 198 196 197 202 206 206 207 207 206 207 208 204 201 213 214 196 193 192 180 172 175 179 184 189 200 224 245 272 266 198 36 30 64 85 137 155 186 176 95 128 182 218 207 188 179 163 159 156 169 189 194 200 200 203 207 205 203 198 197 198 199
183 183 186 187 188 190 193 194 193 193 194 197 200 200 200 201 200 201 201 201 201 201 201 202 200 200 201 204 208 208 208 208 206 205 208 205 204 211 206 190 191 192 183 182 185 191 201 207 213 227 246 244 212 183 16 49 96 85 83 116 156 155 98 68 83 248 226 205 196 178 167 152 153 178 191 202 204 206 209 209 209 204 201 201 201
183 185 187 188 188 190 193 194 193 193 195 198 201 202 201 201 200 200 200 200 200 200 202 202 201 204 207 208 208 207 208 207 203 199 198 199 200 201 199 196 197 191 185 189 192 200 209 211 217 218 211 200 183 177 348 124 132 50 357 4 161 113 68 39 25 279 236 209 200 186 176 160 150 159 170 192 205 210 212 211 212 208 206 208 206
184 185 186 187 188 189 192 194 194 194 195 198 201 203 201 201 201 200 201 202 202 204 205 206 206 209 212 211 208 206 207 204 199 194 191 191 193 196 199 199 197 189 187 193 199 205 208 213 220 208 196 196 188 188 344 159 166 345 331 293 206 80 37 21 23 165 184 187 193 189 179 165 151 154 156 170 192 208 217 220 217 210 210 216 214
184 184 186 187 188 189 190 193 195 195 196 198 201 203 202 201 202 203 204 204 206 208 209 210 211 213 214 213 209 208 208 204 201 197 192 190 192 198 202 199 195 190 190 198 207 210 213 220 217 201 201 207 199 194 55 141 183 335 328 281 191 15 40 43 65 143 154 171 185 186 181 172 159 159 160 163 174 191 210 223 224 217 217 222 221
184 184 187 188 188 190 191 193 195 196 196 198 201 203 203 202 204 206 206 205 207 209 210 211 214 215 214 212 209 209 210 207 208 205 199 197 197 201 205 204 200 198 200 206 213 218 221 222 215 206 203 205 202 203 15 194 191 161 350 303 293 338 65 74 88 135 152 164 177 177 175 173 165 164 164 163 169 180 194 207 218 221 221 225 228
187 187 188 189 190 192 192 193 196 196 196 199 202 203 204 203 205 208 207 205 205 207 209 212 215 215 213 212 210 210 212 213 215 211 206 206 205 207 211 211 208 208 211 215 221 225 227 222 214 212 206 207 207 202 55 161 187 179 204 291 283 241 110 103 101 126 152 161 169 169 165 162 163 169 169 168 170 177 187 194 204 214 223 228 229
189 189 188 188 190 192 192 194 196 196 196 198 201 203 204 204 206 207 207 205 204 206 209 213 217 217 216 214 210 210 213 217 219 216 214 214 212 213 215 214 214 218 222 224 227 227 228 223 216 220 214 212 205 184 139 129 173 186 179 241 248 192 165 133 119 128 154 162 161 159 151 144 149 158 164 170 173 178 188 196 203 209 219 227 227
190 189 189 189 190 191 192 195 196 196 196 196 200 203 204 206 207 207 205 205 206 206 209 213 216 217 216 214 210 210 213 218 220 220 220 218 215 215 215 218 223 228 231 228 227 224 223 222 222 219 206 203 191 182 197 175 186 202 176 218 231 218 272 257 159 137 145 161 157 148 140 136 135 138 142 150 162 174 187 201 209 206 211 222 225
188 189 190 190 191 192 193 195 196 196 196 197 199 201 204 207 206 204 204 206 208 208 210 214 216 216 216 215 213 212 215 218 220 221 221 216 214 215 216 222 228 231 230 227 225 221 218 219 220 207 194 193 191 196 218 196 195 222 186 204 218 233 254 260 222 164 134 156 161 149 142 142 138 135 133 134 142 152 163 185 207 207 210 216 218
187 188 190 191 192 193 193 195 197 196 196 197 199 200 202 203 202 202 204 207 210 209 210 213 216 219 220 220 218 218 219 220 221 222 221 215 213 216 218 222 227 227 226 228 226 220 219 219 211 196 188 189 193 191 179 174 203 233 215 223 234 241 240 256 225 183 104 152 167 159 153 151 146 142 137 132 132 132 137 152 176 194 204 210 213
188 189 190 192 193 193 193 194 196 196 195 196 198 199 199 198 199 201 205 207 209 208 207 210 216 221 222 222 223 224 224 223 223 223 220 217 214 215 219 221 225 227 229 233 225 218 219 208 192 185 186 194 195 181 177 194 229 229 219 234 245 234 233 263 172 137 76 158 169 164 162 159 153 149 144 137 130 122 126 140 146 156 176 193 206
189 190 190 192 193 193 194 194 194 194 195 195 197 198 198 198 198 199 203 206 207 205 204 208 215 221 222 223 226 225 224 224 224 223 219 217 215 216 221 221 223 225 228 228 218 214 205 189 181 183 190 201 195 180 192 211 211 193 173 187 280 250 250 272 124 84 90 165 173 171 169 164 160 157 152 145 133 119 118 138 152 147 147 158 185
189 190 190 191 192 194 194 194 194 194 195 196 196 198 199 199 198 198 201 202 203 206 208 209 213 220 222 224 226 225 223 223 222 222 220 219 219 221 222 220 222 223 224 222 211 202 191 182 181 183 186 192 192 190 203 206 183 146 104 68 7 292 306 334 30 31 151 170 177 178 175 168 166 165 161 153 136 123 117 132 166 165 156 157 172
189 190 190 191 192 194 195 194 194 194 195 196 196 197 199 200 200 200 201 201 204 208 211 211 213 220 221 220 224 224 223 222 221 221 221 221 221 222 221 220 222 221 224 219 200 187 183 182 182 183 183 185 195 204 205 205 191 165 116 67 48 78 3 317 19 41 162 169 168 172 175 171 169 169 167 159 142 131 119 119 156 171 185 193 187
190 191 192 193 193 195 195 194 193 193 195 195 195 195 196 197 198 199 201 202 205 206 206 209 213 220 220 219 220 221 220 221 221 220 221 223 221 221 221 221 221 220 220 209 189 181 184 185 185 188 191 190 192 193 195 202 200 192 174 144 79 52 233 232 63 68 158 170 165 164 171 171 169 172 172 167 155 149 137 126 137 153 196 206 196
191 193 194 195 195 195 195 194 193 193 194 195 194 193 194 195 194 195 197 200 203 206 207 209 212 217 220 220 218 217 219 221 220 220 222 224 222 220 218 216 217 214 207 195 184 181 184 187 190 191 194 196 192 182 187 196 192 189 194 192 198 179 174 174 115 83 147 172 171 168 169 169 171 176 178 178 170 165 162 151 144 150 191 205 202
194 194 194 195 195 195 194 194 194 193 194 194 193 193 194 195 196 197 198 201 204 209 212 214 214 216 218 220 217 216 219 219 220 221 223 225 222 218 212 209 208 203 194 189 185 183 182 187 192 191 192 193 188 177 182 192 189 180 189 192 182 149 148 146 140 128 115 171 180 178 174 171 174 182 185 183 178 173 173 170 166 168 184 195 209
196 194 194 194 195 194 194 194 194 193 193 193 193 194 195 196 197 199 201 204 208 211 213 215 216 215 215 217 216 216 218 219 220 221 221 222 219 213 206 202 201 194 189 188 191 189 186 190 193 193 193 192 189 179 179 190 195 183 179 184 178 158 160 162 151 142 128 148 194 195 191 181 179 184 187 186 184 182 180 180 181 185 192 196 208
195 194 195 195 195 195 194 193 193 193 193 193 193 195 196 197 198 199 202 206 210 212 214 215 215 213 212 213 215 216 216 217 219 221 220 217 212 207 202 199 198 194 191 191 197 202 198 196 197 194 193 194 193 182 176 185 195 189 184 193 195 188 188 188 182 159 131 137 201 214 197 186 184 186 187 188 191 193 189 188 193 199 203 206 211
194 194 195 195 195 195 195 194 193 193 193 193 194 196 197 198 198 199 202 206 209 211 213 214 213 212 209 209 212 213 213 214 216 218 217 211 206 204 201 199 198 197 196 196 201 207 203 199 200 197 196 197 198 193 182 180 185 185 189 198 191 181 189 198 195 187 142 125 139 195 183 171 182 194 194 194 199 203 199 194 201 209 213 216 218
193 193 193 193 194 194 194 195 195 194 193 194 195 196 197 199 199 200 202 204 206 207 208 208 208 207 206 205 208 210 211 214 215 215 213 207 203 203 203 202 201 200 201 200 201 204 203 201 200 199 202 204 205 205 197 186 182 180 186 199 196 188 190 193 194 197 193 145 132 166 183 164 175 197 202 202 204 208 205 200 205 214 220 226 227